Location: Newark
(36.1358°N, 115.1208°W)
Time: 03:51:58
(UTC+00:00)

ISS - Pass Details

Date: 22 January 2021
Orbit: 417 x 422 km, 51.6° (Epoch: 07 March)

Event Time Altitude Azimuth Distance (km) Brightness Sun altitude
Rises 02:10:53 0° 266° (W) 2,364 1.8 -15.1°
Reaches altitude 10° 02:13:27 10° 286° (WNW) 1,503 0.0 -15.6°
Maximum altitude 02:15:52 18° 332° (NNW) 1,114 -1.5 -16.1°
Enters shadow 02:17:39 13° 9° (N) 1,347 -1.4 -16.4°
